Hourly Data Report for July 01, 2004

TORONTO CITY
ONTARIO

43°40'00.000" N
79°24'00.000" W
112.50 m
6158355
71508
XTO

Download Data

Hourly Data (July 2004)
Hourly Data Report for July 1, 2004
TIME
LST
Temp Definition
°C
Dew Point Definition
°C
Rel Hum Definition
%
Precip. Amount Definition
mm

Wind Dir Definition
10's deg

Wind Spd Definition
km/h
Visibility Definition
km
Stn Press Definition
kPa
Hmdx Definition


Wind Chill Definition


Weather Definition


00:00 17.9 14.4 80   LegendMM LegendMM LegendMM 100.41     LegendNANA
01:00 17.8 14.2 79   LegendMM LegendMM LegendMM 100.41     LegendNANA
02:00 18.2 14.3 78   LegendMM LegendMM LegendMM 100.39     LegendNANA
03:00 17.4 14.1 81   LegendMM LegendMM LegendMM 100.34     LegendNANA
04:00 16.5 13.7 84   LegendMM LegendMM LegendMM 100.35     LegendNANA
05:00 16.5 14.2 86   LegendMM LegendMM LegendMM 100.35     LegendNANA
06:00 17.3 14.5 84   LegendMM LegendMM LegendMM 100.35     LegendNANA
07:00 19.8 15.2 75   LegendMM LegendMM LegendMM 100.36     LegendNANA
08:00 21.8 15.7 68   LegendMM LegendMM LegendMM 100.35 26   LegendNANA
09:00 22.7 16.1 66   LegendMM LegendMM LegendMM 100.34 27   LegendNANA
10:00 24.2 16.4 62   LegendMM LegendMM LegendMM 100.30 29   LegendNANA
11:00 27.1 16.5 52   LegendMM LegendMM LegendMM 100.28 32   LegendNANA
12:00 26.0 16.3 55   LegendMM LegendMM LegendMM 100.26 31   LegendNANA
13:00 28.4 15.4 45   LegendMM LegendMM LegendMM 100.19 33   LegendNANA
14:00 28.7 14.3 41   LegendMM LegendMM LegendMM 100.17 32   LegendNANA
15:00 29.6 14.3 39   LegendMM LegendMM LegendMM 100.15 33   LegendNANA
16:00 29.0 15.2 43   LegendMM LegendMM LegendMM 100.15 33   LegendNANA
17:00 27.8 15.4 47   LegendMM LegendMM LegendMM 100.17 32   LegendNANA
18:00 26.7 16.1 52   LegendMM LegendMM LegendMM 100.19 31   LegendNANA
19:00 24.9 15.0 54   LegendMM LegendMM LegendMM 100.26 29   LegendNANA
20:00 23.6 13.5 53   LegendMM LegendMM LegendMM 100.30 27   LegendNANA
21:00 22.3 10.0 46   LegendMM LegendMM LegendMM 100.34     LegendNANA
22:00 20.7 9.8 50   LegendMM LegendMM LegendMM 100.41     LegendNANA
23:00 19.3 8.5 50   LegendMM LegendMM LegendMM 100.45     LegendNANA

Notes on Data Quality.

Legend

  • E = Estimated
  • M = Missing
  • NA = Not Available*
  • [empty] = Indicates an unobserved value
Date modified: